Biloxi, MS

2:34 PM CDT on March 29, 2017 (GMT -0500)
Keesler Air Force Base

Weather History for KBIX - July, 2012

Change the Weather History Date:

Saturday, July 21, 2012

  Actual Average Record
Temperature  
Mean Temperature 79 °F -  
Max Temperature 86 °F 89 °F 98 °F (1981)
Min Temperature 72 °F 74 °F 70 °F (1971)
Cooling Degree Days 14    
Growing Degree Days 29 (Base 50)    
Moisture  
Dew Point 68 °F    
Average Humidity 68    
Maximum Humidity 83    
Minimum Humidity 48    
Precipitation  
Precipitation 0.00 in - - ()
Sea Level Pressure  
Sea Level Pressure 30.02 in    
Wind  
Wind Speed 4 mph (SSE)    
Max Wind Speed 15 mph    
Max Gust Speed 21 mph    
Visibility 10 miles    
Events      
Averages and records for this station are not official NWS values.
T = Trace of Precipitation, MM = Missing Value Source: NWS Daily Summary

Daily Weather History Graph

Daily Weather History Graph

Search for Another Location

Airport or City:

Trip Planner

Search our weather history database for the weather conditions in past years. The results will help you decide how hot, cold, wet, or windy it might be!

Date:

Astronomy

Jul. 21, 2012 Rise Set
Actual Time 6:07 AM CDT 7:56 PM CDT
Civil Twilight 5:40 AM CDT 8:22 PM CDT
Nautical Twilight 5:08 AM CDT 8:55 PM CDT
Astronomical Twilight 4:34 AM CDT 9:29 PM CDT
Moon 8:33 AM CDT (7/21) 9:25 PM CDT (7/21)
Length of Visible Light 14h 42m
Length of Day
13h 48m
Waxing Crescent, 7% of the Moon is Illuminated
Jul 21
Waxing Crescent
Jul 26
First Quarter
Aug 1
Full
Aug 9
Last Quarter
Aug 17
New

Hourly Weather History & Observations

Time (CDT) Temp. Heat Index Dew Point Humidity Pressure Visibility Wind Dir Wind Speed Gust Speed Precip Events Conditions
12:55 AM 74.5 °F - 67.8 °F 80% 30.00 in 10.0 mi Calm Calm - N/A   Clear
1:55 AM 74.5 °F - 68.0 °F 80% 30.01 in 10.0 mi Calm Calm - N/A   Clear
2:07 AM 75.2 °F - 68.0 °F 78% 30.01 in 10.0 mi Calm Calm - N/A   Mostly Cloudy
2:39 AM 73.4 °F - 68.0 °F 83% 30.00 in 10.0 mi Calm Calm - N/A   Scattered Clouds
2:55 AM 73.9 °F - 67.8 °F 81% 30.00 in 10.0 mi Calm Calm - N/A   Partly Cloudy
3:13 AM 73.4 °F - 68.0 °F 83% 30.00 in 10.0 mi NNE 3.5 mph - N/A   Mostly Cloudy
3:14 AM 73.4 °F - 68.0 °F 83% 30.00 in 10.0 mi Calm Calm - N/A   Mostly Cloudy
3:44 AM 73.4 °F - 66.2 °F 78% 30.00 in 10.0 mi NNE 3.5 mph - N/A   Scattered Clouds
3:55 AM 73.9 °F - 67.1 °F 79% 30.00 in 10.0 mi North 3.5 mph - N/A   Partly Cloudy
4:55 AM 73.0 °F - 67.3 °F 82% 30.00 in 10.0 mi NE 4.6 mph - N/A   Clear
5:55 AM 72.7 °F - 67.1 °F 83% 30.00 in 10.0 mi NE 3.5 mph - N/A   Clear
6:55 AM 73.9 °F - 67.5 °F 80% 30.01 in 10.0 mi Calm Calm - N/A   Scattered Clouds
7:55 AM 76.1 °F - 66.7 °F 73% 30.02 in 10.0 mi East 5.8 mph - N/A   Scattered Clouds
8:55 AM 79.3 °F - 66.4 °F 64% 30.03 in 10.0 mi East 3.5 mph - N/A   Scattered Clouds
9:55 AM 82.0 °F 84.5 °F 66.7 °F 60% 30.04 in 10.0 mi Calm Calm - N/A   Mostly Cloudy
10:02 AM 82.4 °F 84.6 °F 66.2 °F 58% 30.05 in 10.0 mi Calm Calm - N/A   Mostly Cloudy
10:04 AM 82.4 °F 84.6 °F 66.2 °F 58% 30.05 in 10.0 mi Calm Calm - N/A   Mostly Cloudy
10:48 AM 82.4 °F 84.6 °F 66.2 °F 58% 30.06 in 10.0 mi Calm Calm - N/A   Scattered Clouds
10:55 AM 84.2 °F 86.6 °F 66.6 °F 55% 30.06 in 10.0 mi Variable 3.5 mph - N/A   Scattered Clouds
11:28 AM 82.4 °F 84.6 °F 66.2 °F 58% 30.06 in 10.0 mi Variable 5.8 mph - N/A   Overcast
11:30 AM 82.4 °F 85.4 °F 68.0 °F 62% 30.06 in 10.0 mi Variable 4.6 mph - N/A   Overcast
11:55 AM 82.0 °F 84.3 °F 66.2 °F 59% 30.05 in 10.0 mi Variable 3.5 mph - N/A   Mostly Cloudy
12:55 PM 86.2 °F 87.6 °F 64.2 °F 48% 30.04 in 10.0 mi Variable 3.5 mph - N/A   Scattered Clouds
1:55 PM 84.7 °F 85.6 °F 63.3 °F 48% 30.03 in 10.0 mi Calm Calm - N/A   Scattered Clouds
2:55 PM 84.4 °F 85.6 °F 63.7 °F 50% 30.02 in 10.0 mi SSW 9.2 mph - N/A   Scattered Clouds
3:55 PM 83.5 °F 86.9 °F 68.7 °F 61% 30.01 in 10.0 mi SE 10.4 mph - N/A   Partly Cloudy
4:55 PM 84.2 °F 86.6 °F 66.4 °F 55% 29.99 in 10.0 mi South 11.5 mph - N/A   Clear
5:43 PM 82.4 °F 85.4 °F 68.0 °F 62% 30.01 in 10.0 mi SSE 13.8 mph - N/A   Mostly Cloudy
5:45 PM 82.4 °F 85.4 °F 68.0 °F 62% 30.00 in 10.0 mi SSE 11.5 mph - N/A   Mostly Cloudy
5:48 PM 82.4 °F 85.4 °F 68.0 °F 62% 30.01 in 10.0 mi SE 11.5 mph - N/A   Scattered Clouds
5:55 PM 82.0 °F 84.7 °F 67.3 °F 61% 30.01 in 10.0 mi SSE 9.2 mph - N/A   Scattered Clouds
6:55 PM 81.3 °F 83.8 °F 67.1 °F 62% 30.01 in 10.0 mi South 9.2 mph - N/A   Overcast
7:24 PM 80.6 °F 83.2 °F 68.0 °F 65% 30.02 in 10.0 mi South 12.7 mph 20.7 mph N/A   Overcast
7:32 PM 80.6 °F 83.9 °F 69.8 °F 70% 30.02 in 10.0 mi South 15.0 mph 20.7 mph N/A   Overcast
7:33 PM 80.6 °F 83.9 °F 69.8 °F 70% 30.02 in 10.0 mi South 13.8 mph 20.7 mph N/A   Overcast
7:51 PM 80.6 °F 83.2 °F 68.0 °F 65% 30.02 in 10.0 mi South 11.5 mph 18.4 mph N/A   Mostly Cloudy
7:52 PM 80.6 °F 83.2 °F 68.0 °F 65% 30.02 in 10.0 mi South 11.5 mph - N/A   Mostly Cloudy
7:55 PM 81.0 °F 83.9 °F 68.7 °F 66% 30.02 in 10.0 mi South 12.7 mph - N/A   Mostly Cloudy
8:01 PM 80.6 °F 83.9 °F 69.8 °F 70% 30.01 in 10.0 mi South 10.4 mph - N/A   Overcast
8:03 PM 80.6 °F 83.9 °F 69.8 °F 70% 30.01 in 10.0 mi South 9.2 mph - N/A   Overcast
8:07 PM 80.6 °F 83.9 °F 69.8 °F 70% 30.01 in 10.0 mi South 13.8 mph - N/A   Overcast
8:32 PM 80.6 °F 83.9 °F 69.8 °F 70% 30.01 in 10.0 mi South 8.1 mph - N/A   Overcast
8:34 PM 80.6 °F 83.9 °F 69.8 °F 70% 30.01 in 10.0 mi South 9.2 mph - N/A   Overcast
8:55 PM 81.0 °F 84.1 °F 69.3 °F 67% 30.01 in 10.0 mi South 10.4 mph - N/A   Overcast
9:55 PM 81.1 °F 84.4 °F 69.4 °F 67% 30.02 in 10.0 mi SSW 6.9 mph - N/A   Overcast
10:27 PM 80.6 °F 83.9 °F 69.8 °F 70% 30.03 in 10.0 mi South 8.1 mph - N/A   Overcast
10:29 PM 80.6 °F 83.9 °F 69.8 °F 70% 30.03 in 10.0 mi South 9.2 mph - N/A   Overcast
10:34 PM 80.6 °F 83.2 °F 68.0 °F 65% 30.03 in 10.0 mi South 8.1 mph - N/A   Overcast
10:37 PM 80.6 °F 83.2 °F 68.0 °F 65% 30.04 in 10.0 mi South 6.9 mph - N/A   Overcast
10:44 PM 80.6 °F 83.9 °F 69.8 °F 70% 30.04 in 10.0 mi South 9.2 mph - N/A   Overcast
10:52 PM 80.6 °F 83.9 °F 69.8 °F 70% 30.04 in 10.0 mi South 9.2 mph - N/A   Overcast
10:55 PM 81.3 °F 84.6 °F 69.6 °F 67% 30.04 in 10.0 mi South 8.1 mph - N/A   Overcast
11:47 PM 80.6 °F 83.9 °F 69.8 °F 70% 30.04 in 10.0 mi South 8.1 mph - N/A   Mostly Cloudy
11:54 PM 80.6 °F 83.9 °F 69.8 °F 70% 30.04 in 10.0 mi South 10.4 mph - N/A   Mostly Cloudy
11:55 PM 81.5 °F 85.1 °F 70.2 °F 68% 30.04 in 10.0 mi South 10.4 mph - N/A   Mostly Cloudy